Date String (YYYY-MM-DD hh:mm:ss) UTC,Instrument flags,Ambient pressure (hPa),Sample flow (lpm),Bypass flow (lpm),Sample temperature (°C),Ambient temperature (°C),ASC tube jacket temperature (°C),LED temperature (°C),Box temperature (°C),Sample RH (%),Span deviation,Mass concentration (μg/m³),Mass concentration (μg/m³),Mass concentration (μg/m³)
DateTimeUTC,F1_M11,P_M11,Q1_M11,Q2_M11,T1_M11,T2_M11,T3_M11,T4_M11,T5_M11,U1_M11,ZSPAN_M11,X0_M11,X2_M11,X1_M11
2023-05-26 07:00:00,,0829.5,5.01,0.00,28.9,27.4,00.0,37.3,30.5,25.3,0000.0,0008.83,0004.02,0003.37
2023-05-26 07:01:00,,0829.5,5.00,0.00,28.9,27.4,00.0,37.3,30.5,25.3,0000.5,0008.88,0004.07,0003.42
2023-05-26 07:02:00,,0829.6,5.00,0.00,28.9,27.4,00.0,37.3,30.6,25.3,0003.0,0008.98,0004.14,0003.46
2023-05-26 07:03:00,,0829.7,4.99,0.00,28.9,27.4,00.0,37.3,30.6,25.3,0000.2,0009.24,0004.23,0003.52
2023-05-26 07:04:00,,0829.7,4.99,0.00,28.9,27.4,00.0,37.3,30.6,25.2,0003.5,0009.80,0004.34,0003.55
2023-05-26 07:05:00,,0829.7,5.00,0.00,29.0,27.4,00.0,37.3,30.6,24.8,0003.9,0010.31,0004.40,0003.58
2023-05-26 07:06:00,,0829.7,5.01,0.00,29.0,27.5,00.0,37.3,30.6,24.6,0003.6,0010.69,0004.39,0003.59
2023-05-26 07:07:00,,0829.7,5.02,0.00,29.0,27.5,00.0,37.3,30.6,24.8,0003.5,0010.64,0004.38,0003.60
2023-05-26 07:08:00,,0829.6,4.99,0.00,29.0,27.5,00.0,37.3,30.6,24.8,0003.3,0010.47,0004.42,0003.61
2023-05-26 07:09:00,,0829.6,4.99,0.00,29.0,27.5,00.0,37.3,30.6,25.2,0002.9,0010.63,0004.45,0003.60
2023-05-26 07:10:00,,0829.5,5.00,0.00,29.0,27.5,00.0,37.3,30.6,25.4,0003.2,0010.62,0004.40,0003.59
2023-05-26 07:11:00,,0829.5,5.00,0.00,29.0,27.5,00.0,37.3,30.6,25.3,0003.3,0010.63,0004.43,0003.58
2023-05-26 07:12:00,,0829.5,5.01,0.00,29.0,27.5,00.0,37.3,30.6,25.2,0003.2,0010.72,0004.44,0003.56
2023-05-26 07:13:00,,0829.5,4.99,0.00,29.0,27.5,00.0,37.3,30.6,25.2,0003.3,0010.69,0004.41,0003.56
2023-05-26 07:14:00,,0829.6,4.99,0.00,29.0,27.5,00.0,37.3,30.6,25.2,0003.1,0010.62,0004.38,0003.54
2023-05-26 07:15:00,,0829.6,5.00,0.00,29.0,27.5,00.0,37.3,30.7,24.9,0002.9,0009.97,0004.32,0003.52
2023-05-26 07:16:00,,0829.6,5.01,0.00,29.0,27.5,00.0,37.4,30.6,24.9,0001.4,0009.43,0004.30,0003.51
2023-05-26 07:17:00,,0829.6,5.00,0.00,29.0,27.5,00.0,37.4,30.6,24.8,0000.0,0009.45,0004.28,0003.51
2023-05-26 07:18:00,,0829.6,4.99,0.00,29.0,27.5,00.0,37.4,30.7,24.9,0000.0,0009.26,0004.25,0003.49
2023-05-26 07:19:00,,0829.6,4.99,0.00,29.1,27.5,00.0,37.4,30.7,24.8,0000.0,0008.65,0004.18,0003.48
2023-05-26 07:20:00,,0829.6,5.00,0.00,29.1,27.5,00.0,37.4,30.7,24.8,0000.0,0008.29,0004.12,0003.48
2023-05-26 07:21:00,,0829.6,5.01,0.00,29.1,27.5,00.0,37.4,30.7,24.7,0001.8,0008.09,0004.08,0003.49
2023-05-26 07:22:00,,0829.6,5.01,0.00,29.1,27.5,00.0,37.4,30.7,24.5,0002.7,0008.01,0004.04,0003.49
2023-05-26 07:23:00,,0829.6,5.01,0.00,29.1,27.5,00.0,37.4,30.7,24.7,0000.1,0008.02,0004.06,0003.50
2023-05-26 07:24:00,,0829.6,4.99,0.00,29.1,27.5,00.0,37.4,30.7,24.7,0003.2,0008.30,0004.14,0003.50
2023-05-26 07:25:00,,0829.6,5.00,0.00,29.1,27.5,00.0,37.4,30.7,24.7,0003.7,0008.37,0004.16,0003.51
2023-05-26 07:26:00,,0829.6,5.00,0.00,29.1,27.5,00.0,37.4,30.7,24.7,0003.9,0008.50,0004.20,0003.53
2023-05-26 07:27:00,,0829.6,5.00,0.00,29.1,27.5,00.0,37.4,30.7,24.7,0004.0,0008.58,0004.21,0003.53
2023-05-26 07:28:00,,0829.7,5.00,0.00,29.0,27.5,00.0,37.4,30.7,24.8,0003.9,0008.38,0004.20,0003.52
2023-05-26 07:29:00,,0829.7,5.00,0.00,29.1,27.5,00.0,37.4,30.7,24.7,0003.8,0008.19,0004.23,0003.52
2023-05-26 07:30:00,,0829.7,5.00,0.00,29.1,27.5,00.0,37.4,30.7,24.4,0003.8,0008.08,0004.22,0003.52
2023-05-26 07:31:00,,0829.7,5.00,0.00,29.1,27.5,00.0,37.4,30.7,24.3,0003.9,0008.96,0004.26,0003.53
2023-05-26 07:32:00,,0829.6,5.01,0.00,29.1,27.5,00.0,37.4,30.7,24.2,0004.2,0008.97,0004.25,0003.51
2023-05-26 07:33:00,,0829.6,5.00,0.00,29.1,27.5,00.0,37.4,30.7,24.2,0004.4,0008.99,0004.30,0003.50
2023-05-26 07:34:00,,0829.7,5.00,0.00,29.1,27.5,00.0,37.4,30.7,24.0,0004.2,0009.51,0004.28,0003.51
2023-05-26 07:35:00,,0829.7,5.00,0.00,29.1,27.5,00.0,37.4,30.7,24.0,0004.0,0009.84,0004.29,0003.51
2023-05-26 07:36:00,,0829.6,5.00,0.00,29.1,27.5,00.0,37.4,30.7,24.0,0003.8,0009.74,0004.27,0003.52
2023-05-26 07:37:00,,0829.6,5.01,0.00,29.1,27.5,00.0,37.4,30.7,23.9,0003.8,0009.78,0004.25,0003.52
2023-05-26 07:38:00,,0829.6,4.99,0.00,29.1,27.5,00.0,37.4,30.7,24.0,0003.9,0009.82,0004.28,0003.53
2023-05-26 07:39:00,,0829.6,5.00,0.00,29.1,27.5,00.0,37.4,30.7,24.0,0003.7,0010.06,0004.35,0003.56
2023-05-26 07:40:00,,0829.6,5.00,0.00,29.1,27.5,00.0,37.4,30.7,24.1,0001.6,0010.16,0004.39,0003.57
2023-05-26 07:41:00,,0829.7,5.00,0.00,29.1,27.5,00.0,37.4,30.7,24.1,0000.0,0010.36,0004.45,0003.58
2023-05-26 07:42:00,,0829.6,5.00,0.00,29.1,27.5,00.0,37.4,30.7,24.0,0000.0,0009.67,0004.44,0003.57
2023-05-26 07:43:00,,0829.7,5.00,0.00,29.1,27.5,00.0,37.4,30.7,24.0,0000.0,0009.69,0004.48,0003.59
2023-05-26 07:44:00,,0829.7,5.00,0.00,29.1,27.5,00.0,37.4,30.7,24.0,0000.0,0009.78,0004.50,0003.61
2023-05-26 07:45:00,,0829.7,5.00,0.00,29.1,27.5,00.0,37.4,30.7,23.9,0000.7,0010.42,0004.55,0003.61
2023-05-26 07:46:00,,0829.7,5.00,0.00,29.1,27.5,00.0,37.4,30.7,23.9,0003.0,0010.46,0004.56,0003.61
2023-05-26 07:47:00,,0829.6,5.00,0.00,29.1,27.5,00.0,37.4,30.7,23.9,0002.4,0011.20,0004.55,0003.60
2023-05-26 07:48:00,,0829.7,5.00,0.00,29.1,27.5,00.0,37.4,30.7,23.8,0000.0,0011.20,0004.55,0003.59
2023-05-26 07:49:00,,0829.7,5.00,0.00,29.1,27.5,00.0,37.4,30.7,23.9,0000.0,0011.49,0004.57,0003.59
2023-05-26 07:50:00,,0829.7,5.00,0.00,29.1,27.5,00.0,37.4,30.7,23.9,0000.0,0012.29,0004.58,0003.57
2023-05-26 07:51:00,,0829.7,5.00,0.00,29.1,27.5,00.0,37.4,30.7,23.9,0000.0,0012.44,0004.59,0003.57
2023-05-26 07:52:00,,0829.7,5.00,0.00,29.1,27.5,00.0,37.4,30.7,23.9,0002.0,0012.91,0004.57,0003.57
2023-05-26 07:53:00,,0829.8,5.00,0.00,29.1,27.5,00.0,37.4,30.7,23.9,0002.4,0013.60,0004.57,0003.57
2023-05-26 07:54:00,,0829.8,5.00,0.00,29.1,27.5,00.0,37.4,30.7,23.9,0002.9,0013.81,0004.54,0003.57
2023-05-26 07:55:00,,0829.8,5.00,0.00,29.1,27.5,00.0,37.4,30.7,24.0,0000.9,0014.00,0004.49,0003.57
2023-05-26 07:56:00,,0829.8,5.00,0.00,29.1,27.5,00.0,37.4,30.7,24.0,0000.1,0013.13,0004.45,0003.56
2023-05-26 07:57:00,,0829.8,5.00,0.00,29.1,27.5,00.0,37.4,30.7,24.0,0000.0,0012.69,0004.44,0003.56
2023-05-26 07:58:00,,0829.8,5.00,0.00,29.1,27.5,00.0,37.4,30.7,24.0,0000.0,0011.88,0004.46,0003.58
2023-05-26 07:59:00,,0829.8,5.00,0.00,29.1,27.5,00.0,37.4,30.7,24.0,0000.0,0012.55,0004.46,0003.58
